COSMOS 2251 DEB, 40228

Orbit data source: Space-Track

COSMOS 2251 DEB, 40228 is space debris in LEO originally from a launch on Wed, 16 Jun 1993 UTC launched from the Plesetsk Missile And Space Complex (PKMTR). The debris from Iridium 33, an American commercial communications satellite, has been tracked extensively since its accidental collision with the defunct Russian satellite Cosmos 2251 in 2009. This event, occurring at high speed in low Earth orbit (LEO), generated thousands of pieces of space debris, significantly increasing the risk of further collisions. The Iridium 33 debris cloud has impacted space traffic management and orbital debris mitigation strategies, making it a subject of ongoing study in space situational awareness.

Loading next visibility...
COSMOS 2251 DEB details
Identifier
40228, 1993-036BVH
Orbit
LEO
Last TLE update2 days ago
Origin
Flag of CISKVR (CIS)
ManufacturerUnknown
MissionSpacecraft
Bus & MotorUnknown
MassUnknown
Launch date (UTC)
1993-06-16 (31 years ago)
Launch vehicleUnknown
Launch site
Plesetsk Missile And Space Complex (PKMTR)
Object type
Payload
Rocket body
Debris
Shape & HBRUnknown
Radar Cross SectionSmall (<0.1 m²)

Expand to show TLE details & history

TLE from 2 days ago
0 COSMOS 2251 DEB
1 40228U 93036BVH 24347.40026773  .00001553  00000-0  50122-3 0  9993
2 40228  74.0554 215.3436 0023276   8.7860 164.3616 14.39860545536608
Epoch: 2024-12-12T09:36Z
Definitive object data (Epoch: 2024-12-12T09:36:23.131Z)
Latitude6.4477°
Longitude167.82569°
Altitude776.973 km
Speed7.458 km/s
True Right ascension02h 14m 00s
True Declination6° 24' 34"
Sunlit
Object was in full shadow at TLE epoch
Visualization TLE readout
Latitude63.58434°
Longitude131.5891°
Altitude774.154 km
Speed7.471 km/s
Apparent Right ascension15h 51m 12s
Apparent Declination43° 08' 36"
Sunlit
Object is in daylight
Visualization observer readout
Local Sidereal Time01:33:04
Azimuth335.56° NNW
Elevation-1.274°
Doppler factor1
Orbital elements
Apogee altitude773.184 km
Perigee altitude739.971 km
Semi-major axis7,134.714 km
Eccentricity0.0023276
Inclination74.0554°
RAAN215.3436°
Arg. of periapsis8.786°
True anomaly164.4333°
Mean anomaly164.3616°
Eccentric anomaly164.39747°
Mean motion3.60146 °/min
BSTAR0.00050122
Orbital period99.96 mins
Loading maneuver chart data...

COSMOS 2251 DEB Visibility forecast

Observer location: undefined°, undefined

Span
Click to sort rows by Start time (UTC) header in descending order
Start Az.
Max El. time (UTC)
Max El. Az.
Max El.
End time (UTC)
End Az.
9 mins2024-12-14 03:03:25.296Z329.709° NNW2024-12-14 03:08:25.296Z249.587° W37.392°2024-12-14 03:12:25.296Z185.297° SSW
8 mins2024-12-14 15:57:25.296Z175.894° S2024-12-14 16:01:25.296Z91.447° ESE38.5°2024-12-14 16:05:25.296Z30.491° NE
5 mins2024-12-14 17:41:25.296Z274.667° WNW2024-12-14 17:43:25.296Z303.188° NW17.585°2024-12-14 17:46:25.296Z341.879° N
9 mins2024-12-15 02:24:25.296Z341.876° N2024-12-15 02:28:25.296Z11.792° NNE44.929°2024-12-15 02:33:25.296Z161.767° S
|